Bel Air, Maryland - USA


Today's Data File


5/9/26
Time         Wind Dir   Wind Spd  Wind Gust     Hum In   Humidity    Temp In       Temp  Raw Barom Wind Chill  Press Alt Cloud Base   Dens Alt Temp Out R  DailyRain   24HrRain   RainRate
                    �        mph        mph          %          %         �F         �F         in         �F         ft         ft         ft      �F/hr         in         in      in/hr
12:00am           174          3          5         38         82       75.4       57.6      29.33       57.6        551       1362        608      -1.32       0.00       0.00      0.000
12:01am           186          3          3         38         82       75.4       57.5      29.33       57.5        552       1361        602      -1.38       0.00       0.00      0.000
12:02am           174          5          7         38         82       75.4       57.5      29.33       57.0        552       1361        602      -1.37       0.00       0.00      0.000
12:03am           185          2          7         38         82       75.4       57.5      29.33       57.5        552       1361        602      -1.35       0.00       0.00      0.000
12:04am           239          5          7         38         82       75.4       57.5      29.33       57.0        552       1361        602      -1.33       0.00       0.00      0.000
12:05am           169          4          7         39         82       75.4       57.5      29.33       57.5        552       1361        602      -1.31       0.00       0.00      0.000
12:06am           177          1          4         39         82       75.4       57.5      29.33       57.5        551       1361        601      -1.29       0.00       0.00      0.000
12:07am           202          5          7         38         82       75.4       57.4      29.33       56.9        551       1360        594      -1.36       0.00       0.00      0.000
12:08am           187          7          7         38         82       75.4       57.4      29.33       56.1        551       1360        594      -1.34       0.00       0.00      0.000
12:09am           170          3          8         38         82       75.4       57.4      29.33       57.4        551       1360        594      -1.32       0.00       0.00      0.000
12:10am           173          2          8         38         82       75.4       57.4      29.33       57.4        551       1360        594      -1.30       0.00       0.00      0.000
12:11am           182          5          8         38         82       75.4       57.4      29.33       56.9        551       1360        594      -1.28       0.00       0.00      0.000
12:12am           183          2          8         38         82       75.4       57.4      29.33       57.4        552       1360        596      -1.25       0.00       0.00      0.000
12:13am           183          1          8         38         82       75.4       57.4      29.33       57.4        551       1360        594      -1.23       0.00       0.00      0.000
12:14am           183          3          8         38         82       75.4       57.4      29.33       57.4        551       1360        594      -1.21       0.00       0.00      0.000
12:15am           188          4          8         39         82       75.4       57.3      29.33       57.3        551       1360        588      -1.29       0.00       0.00      0.000
12:16am           197          0          5         39         82       75.4       57.4      29.33       57.4        551       1360        594      -1.17       0.00       0.00      0.000
12:17am           196          1          5         38         82       75.4       57.3      29.33       57.3        551       1360        588      -1.25       0.00       0.00      0.000
12:18am           196          0          5         39         82       75.4       57.3      29.33       57.3        551       1360        588      -1.23       0.00       0.00      0.000
12:19am           166          2          5         39         82       75.4       57.3      29.33       57.3        551       1360        588      -1.21       0.00       0.00      0.000
12:20am           150          3          5         39         82       75.4       57.3      29.33       57.3        551       1360        588      -1.19       0.00       0.00      0.000
12:21am           186          3          4         39         82       75.4       57.2      29.33       57.2        551       1359        581      -1.27       0.00       0.00      0.000
12:22am           186          1          4         39         82       75.4       57.2      29.33       57.2        552       1359        582      -1.25       0.00       0.00      0.000
12:23am           154          4          9         38         82       75.4       57.3      29.33       57.3        552       1360        589      -1.13       0.00       0.00      0.000
12:24am           168          1          9         39         82       75.4       57.2      29.33       57.2        552       1359        582      -1.21       0.00       0.00      0.000
12:25am           229          3          9         39         82       75.4       57.2      29.33       57.2        552       1359        582      -1.19       0.00       0.00      0.000
12:26am           243          5          6         39         82       75.4       57.2      29.33       56.7        552       1359        582      -1.17       0.00       0.00      0.000
12:27am           151          6          6         39         82       75.4       57.2      29.33       56.2        552       1359        582      -1.15       0.00       0.00      0.000
12:28am           181          2          6         39         82       75.4       57.2      29.33       57.2        553       1359        584      -1.13       0.00       0.00      0.000
12:29am           207          3          6         39         82       75.4       57.2      29.33       57.2        552       1359        582      -1.11       0.00       0.00      0.000
12:30am           226          3          6         39         82       75.4       57.2      29.33       57.2        552       1359        582      -1.09       0.00       0.00      0.000
12:31am           220          2          3         39         82       75.4       57.2      29.33       57.2        552       1359        582      -1.08       0.00       0.00      0.000
12:32am           182          4          4         39         82       75.4       57.2      29.33       57.2        552       1359        582      -1.06       0.00       0.00      0.000
12:33am           169          1          5         39         82       75.4       57.1      29.33       57.1        553       1359        577      -1.14       0.00       0.00      0.000
12:34am           169          1          5         39         82       75.4       57.1      29.33       57.1        553       1359        577      -1.12       0.00       0.00      0.000
12:35am           208          3          5         39         82       75.4       57.1      29.33       57.1        553       1359        577      -1.10       0.00       0.00      0.000
12:36am           205          2          3         38         82       75.4       57.0      29.33       57.0        553       1358        570      -1.18       0.00       0.00      0.000
12:37am           189          5          6         39         82       75.4       57.0      29.33       56.4        554       1358        572      -1.16       0.00       0.00      0.000
12:38am           170          6          6         39         82       75.4       57.0      29.33       56.0        554       1358        572      -1.14       0.00       0.00      0.000
12:39am           185          3          6         39         82       75.4       57.0      29.33       57.0        554       1358        572      -1.13       0.00       0.00      0.000
12:40am           181          2          6         39         82       75.4       57.0      29.33       57.0        554       1358        572      -1.11       0.00       0.00      0.000
12:41am           165          3          4         39         82       75.4       57.0      29.33       57.0        554       1358        572      -1.09       0.00       0.00      0.000
12:42am           165          2          6         39         82       75.4       56.9      29.32       56.9        555       1358        566      -1.17       0.00       0.00      0.000
12:43am           156          2          6         39         82       75.4       56.9      29.33       56.9        554       1358        565      -1.15       0.00       0.00      0.000
12:44am           168          2          6         39         82       75.4       56.9      29.33       56.9        554       1358        565      -1.13       0.00       0.00      0.000
12:45am           175          2          6         39         82       75.4       56.9      29.33       56.9        554       1358        565      -1.11       0.00       0.00      0.000
12:46am           175          1          2         39         82       75.4       56.9      29.33       56.9        553       1358        564      -1.09       0.00       0.00      0.000
12:47am           172          2          6         39         82       75.4       56.9      29.33       56.9        553       1358        564      -1.08       0.00       0.00      0.000
12:48am           168          1          6         39         82       75.4       56.8      29.33       56.8        554       1357        558      -1.16       0.00       0.00      0.000
12:49am           214          0          6         39         82       75.4       56.8      29.33       56.8        553       1357        557      -1.14       0.00       0.00      0.000
12:50am           185          1          6         38         82       75.4       56.8      29.33       56.8        553       1357        557      -1.12       0.00       0.00      0.000
12:51am           195          3          4         39         82       75.4       56.8      29.33       56.8        554       1357        558      -1.10       0.00       0.00      0.000
12:52am           194          4          4         39         82       75.4       56.7      29.33       56.6        554       1356        552      -1.18       0.00       0.00      0.000
12:53am           185          2          5         39         82       75.4       56.7      29.33       56.7        553       1356        551      -1.16       0.00       0.00      0.000
12:54am           171          4          5         39         83       75.4       56.6      29.33       56.5        553       1274        544      -1.24       0.00       0.00      0.000
12:55am           198          1          6         39         83       75.4       56.6      29.33       56.6        553       1274        544      -1.22       0.00       0.00      0.000
12:56am           198          2          3         39         83       75.4       56.6      29.33       56.6        553       1274        544      -1.20       0.00       0.00      0.000
12:57am           198          2          3         39         83       75.4       56.5      29.33       56.5        553       1273        537      -1.28       0.00       0.00      0.000
12:58am           198          1          3         39         83       75.4       56.5      29.33       56.5        553       1273        537      -1.26       0.00       0.00      0.000
12:59am           198          2          3         39         83       75.4       56.5      29.33       56.5        553       1273        537      -1.24       0.00       0.00      0.000
1:00am            195          4          4         39         83       75.4       56.5      29.33       56.4        553       1273        537      -1.22       0.00       0.00      0.000
1:01am            183          2          7         39         83       75.4       56.5      29.33       56.5        554       1273        539      -1.20       0.00       0.00      0.000
1:02am            264          3          7         39         83       75.4       56.4      29.33       56.4        554       1273        532      -1.28       0.00       0.00      0.000
1:03am            197          2          7         39         83       75.4       56.5      29.33       56.5        554       1273        539      -1.16       0.00       0.00      0.000
1:04am            197          1          7         39         83       75.4       56.4      29.32       56.4        555       1273        533      -1.24       0.00       0.00      0.000
1:05am            195          0          7         39         83       75.4       56.4      29.32       56.4        555       1273        533      -1.22       0.00       0.00      0.000
1:06am            195          2          2         40         83       75.4       56.4      29.32       56.4        555       1273        533      -1.20       0.00       0.00      0.000
1:07am            179          1          5         39         83       75.4       56.3      29.32       56.3        555       1272        527      -1.28       0.00       0.00      0.000
1:08am            179          2          5         39         83       75.4       56.3      29.32       56.3        555       1272        527      -1.26       0.00       0.00      0.000
1:09am            179          4          6         39         84       75.4       56.3      29.32       56.1        555       1191        527      -1.23       0.00       0.00      0.000
1:10am            199          4          6         39         84       75.4       56.2      29.32       56.0        555       1191        520      -1.31       0.00       0.00      0.000
1:11am            165          4          6         39         84       75.4       56.2      29.32       56.0        556       1191        521      -1.29       0.00       0.00      0.000
1:12am            158          2          6         39         84       75.4       56.2      29.32       56.2        556       1191        521      -1.27       0.00       0.00      0.000
1:13am            265          2          6         39         84       75.4       56.2      29.32       56.2        556       1191        521      -1.25       0.00       0.00      0.000
1:14am            251          2          6         39         84       75.4       56.2      29.32       56.2        556       1191        521      -1.23       0.00       0.00      0.000
1:15am            193          3          6         38         84       75.4       56.2      29.32       56.2        557       1191        522      -1.21       0.00       0.00      0.000
1:16am            187          3          3         39         84       75.4       56.2      29.32       56.2        557       1191        522      -1.19       0.00       0.00      0.000
1:17am            189          1          6         39         84       75.4       56.2      29.32       56.2        558       1191        523      -1.17       0.00       0.00      0.000
1:18am            181          1          6         39         84       75.4       56.1      29.32       56.1        560       1190        519      -1.25       0.00       0.00      0.000
1:19am            177          3          6         39         84       75.4       56.1      29.32       56.1        559       1190        518      -1.23       0.00       0.00      0.000
1:20am            209          3          6         39         84       75.4       56.1      29.32       56.1        560       1190        519      -1.21       0.00       0.00      0.000
1:21am            192          1          4         38         84       75.4       56.0      29.32       56.0        560       1190        512      -1.29       0.00       0.00      0.000
1:22am            192          2          4         39         84       75.4       56.0      29.32       56.0        560       1190        512      -1.27       0.00       0.00      0.000
1:23am            192          1          4         39         84       75.4       56.0      29.32       56.0        560       1190        512      -1.25       0.00       0.00      0.000
1:24am            192          0          4         39         84       75.4       56.0      29.32       56.0        560       1190        514      -1.23       0.00       0.00      0.000
1:25am            192          4          5         39         85       75.4       56.0      29.32       55.8        560       1110        514      -1.21       0.00       0.00      0.000
1:26am            192          2          4         38         85       75.4       56.0      29.32       56.0        560       1110        512      -1.19       0.00       0.00      0.000
1:27am            174          3          4         39         85       75.4       56.0      29.32       56.0        559       1110        511      -1.17       0.00       0.00      0.000
1:28am            174          2          4         38         85       75.4       56.0      29.32       56.0        559       1110        511      -1.15       0.00       0.00      0.000
1:29am            179          3          6         39         85       75.4       56.0      29.32       56.0        560       1110        512      -1.13       0.00       0.00      0.000
1:30am            237          2          6         39         85       75.4       56.0      29.32       56.0        560       1110        514      -1.11       0.00       0.00      0.000
1:31am            237          1          3         39         85       75.4       55.9      29.32       55.9        561       1109        508      -1.19       0.00       0.00      0.000
1:32am            160          3          4         39         85       75.4       55.9      29.32       55.9        562       1109        509      -1.17       0.00       0.00      0.000
1:33am            160          1          4         39         85       75.4       55.9      29.32       55.9        562       1109        509      -1.15       0.00       0.00      0.000
1:34am            168          6          8         38         85       75.4       55.8      29.32       54.6        561       1109        502      -1.23       0.00       0.00      0.000
1:35am            168          2          8         39         85       75.4       55.9      29.32       55.9        563       1109        510      -1.11       0.00       0.00      0.000
1:36am            168          1          3         39         85       75.4       55.8      29.32       55.8        563       1109        504      -1.19       0.00       0.00      0.000
1:37am            181          1          3         39         85       75.4       55.8      29.31       55.8        565       1109        506      -1.17       0.00       0.00      0.000
1:38am            196          3          3         39         85       75.4       55.8      29.31       55.8        565       1109        506      -1.15       0.00       0.00      0.000
1:39am            158          3          7         39         85       75.4       55.8      29.31       55.8        566       1109        507      -1.13       0.00       0.00      0.000
1:40am            158          0          7         39         86       75.4       55.8      29.31       55.8        565       1030        506      -1.12       0.00       0.00      0.000
1:41am            191          3          7         39         85       75.4       55.9      29.31       55.9        565       1109        513      -1.00       0.00       0.00      0.000
1:42am            191          4          7         39         85       75.4       55.8      29.31       55.6        565       1109        506      -1.08       0.00       0.00      0.000
1:43am            191          2          7         39         85       75.4       55.8      29.32       55.8        564       1109        505      -1.06       0.00       0.00      0.000
1:44am            191          3          7         39         85       75.4       55.8      29.32       55.8        564       1109        505      -1.05       0.00       0.00      0.000
1:45am            191          1          7         39         85       75.4       55.7      29.32       55.7        564       1108        498      -1.13       0.00       0.00      0.000
1:46am            229          2          3         39         86       75.4       55.8      29.32       55.8        564       1030        505      -1.01       0.00       0.00      0.000
1:47am            193          4          5         39         86       75.4       55.7      29.31       55.5        566       1029        501      -1.09       0.00       0.00      0.000
1:48am            193          3          5         39         86       75.4       55.7      29.31       55.7        566       1029        501      -1.07       0.00       0.00      0.000
1:49am            174          2          5         39         86       75.4       55.7      29.31       55.7        566       1029        501      -1.06       0.00       0.00      0.000
1:50am            174          2          5         39         86       75.4       55.7      29.31       55.7        566       1029        501      -1.04       0.00       0.00      0.000
1:51am            231          1          2         39         86       75.4       55.7      29.31       55.7        566       1029        501      -1.02       0.00       0.00      0.000
1:52am            202          2          4         39         86       75.4       55.7      29.31       55.7        566       1029        501      -1.00       0.00       0.00      0.000
1:53am            207          0          7         39         86       75.4       55.6      29.31       55.6        567       1029        495      -1.09       0.00       0.00      0.000
1:54am            207          3          7         39         86       75.4       55.6      29.31       55.6        567       1029        495      -1.07       0.00       0.00      0.000
1:55am            191          2          7         39         86       75.4       55.6      29.31       55.6        567       1029        495      -1.05       0.00       0.00      0.000
1:56am            191          2          2         39         86       75.4       55.6      29.31       55.6        567       1029        495      -1.03       0.00       0.00      0.000
1:57am            191          2          2         39         86       75.4       55.6      29.31       55.6        567       1029        495      -1.02       0.00       0.00      0.000
1:58am            191          1          2         39         86       75.4       55.5      29.31       55.5        567       1028        489      -1.10       0.00       0.00      0.000
1:59am            191          1          2         39         86       75.4       55.5      29.31       55.5        567       1028        489      -1.08       0.00       0.00      0.000
2:00am            191          2          3         39         86       75.4       55.5      29.31       55.5        566       1028        487      -1.06       0.00       0.00      0.000
2:01am            191          2          3         39         86       75.4       55.4      29.31       55.4        567       1028        482      -1.14       0.00       0.00      0.000
2:02am            191          4          5         39         86       75.4       55.4      29.31       55.1        567       1028        482      -1.12       0.00       0.00      0.000
2:03am            164          4          5         39         86       75.4       55.4      29.31       55.1        567       1028        482      -1.11       0.00       0.00      0.000
2:04am            206          2          5         39         86       75.4       55.4      29.31       55.4        567       1028        482      -1.09       0.00       0.00      0.000
2:05am            208          3          5         39         86       75.4       55.4      29.31       55.4        568       1028        483      -1.07       0.00       0.00      0.000
2:06am            208          1          3         38         86       75.4       55.5      29.31       55.5        568       1028        490      -0.95       0.00       0.00      0.000
2:07am            185          0          5         39         86       75.4       55.4      29.31       55.4        569       1028        484      -1.04       0.00       0.00      0.000
2:08am            185          2          5         39         86       75.4       55.4      29.31       55.4        569       1028        484      -1.02       0.00       0.00      0.000
2:09am            204          2          5         39         86       75.4       55.4      29.31       55.4        570       1028        485      -1.01       0.00       0.00      0.000
2:10am            170          2          6         39         86       75.4       55.5      29.31       55.5        569       1028        491      -0.89       0.00       0.00      0.000
2:11am            185          3          3         39         86       75.4       55.5      29.31       55.5        571       1028        493      -0.88       0.00       0.00      0.000
2:12am            182          0          3         39         86       75.4       55.5      29.31       55.5        571       1028        493      -0.86       0.00       0.00      0.000
2:13am            193          4          4         39         86       75.4       55.5      29.31       55.2        572       1028        494      -0.85       0.00       0.00      0.000
2:14am            193          0          4         39         86       75.4       55.5      29.31       55.5        572       1028        494      -0.83       0.00       0.00      0.000
2:15am            193          1          4         39         86       75.4       55.5      29.31       55.5        573       1028        497      -0.82       0.00       0.00      0.000
2:16am            197          3          5         39         86       75.4       55.5      29.30       55.5        574       1028        498      -0.81       0.00       0.00      0.000
2:17am            231          2          6         39         86       75.4       55.5      29.30       55.5        574       1028        498      -0.79       0.00       0.00      0.000
2:18am            176          5          7         39         86       75.4       55.5      29.30       54.7        575       1028        499      -0.78       0.00       0.00      0.000
2:19am            189          4          7         39         86       75.4       55.6      29.30       55.3        578       1029        509      -0.67       0.00       0.00      0.000
2:20am            195          2          7         39         85       75.4       55.6      29.30       55.6        578       1108        509      -0.66       0.00       0.00      0.000
2:21am            193          4          4         39         86       75.4       55.7      29.30       55.5        579       1029        517      -0.55       0.00       0.00      0.000
2:22am            166          3          4         39         85       75.4       55.7      29.30       55.7        577       1108        514      -0.54       0.00       0.00      0.000
2:23am            181          1          4         39         85       75.4       55.7      29.30       55.7        577       1108        514      -0.53       0.00       0.00      0.000
2:24am            181          0          4         39         85       75.4       55.7      29.30       55.7        578       1108        516      -0.52       0.00       0.00      0.000
2:25am            205          3          5         39         85       75.4       55.7      29.30       55.7        576       1108        513      -0.51       0.00       0.00      0.000
2:26am            164          6          6         39         85       75.4       55.8      29.30       54.6        577       1109        521      -0.41       0.00       0.00      0.000
2:27am            208          2          6         39         85       75.4       55.8      29.30       55.8        577       1109        521      -0.40       0.00       0.00      0.000
2:28am            264          2          6         39         85       75.4       55.9      29.30       55.9        575       1109        525      -0.29       0.00       0.00      0.000
2:29am            185          2          6         39         85       75.4       55.9      29.30       55.9        576       1109        526      -0.29       0.00       0.00      0.000
2:30am            185          1          6         39         85       75.4       55.9      29.30       55.9        577       1109        528      -0.29       0.00       0.00      0.000
2:31am            185          1          2         39         85       75.4       56.0      29.30       56.0        579       1110        536      -0.18       0.00       0.00      0.000
2:32am            226          4          4         39         85       75.6       55.9      29.30       55.7        579       1109        530      -0.28       0.00       0.00      0.000
2:33am            178          1          4         39         84       75.6       56.0      29.30       56.0        580       1190        538      -0.17       0.00       0.00      0.000
2:34am            205          2          4         39         84       75.6       56.0      29.30       56.0        581       1190        539      -0.17       0.00       0.00      0.000
2:35am            205          0          4         39         84       75.6       56.0      29.30       56.0        580       1190        538      -0.17       0.00       0.00      0.000
2:36am            205          1          2         39         84       75.6       56.0      29.30       56.0        581       1190        539      -0.16       0.00       0.00      0.000
2:37am            202          4          8         39         84       75.6       56.0      29.30       55.8        581       1190        539      -0.16       0.00       0.00      0.000
2:38am            202          0          8         39         84       75.6       56.0      29.30       56.0        581       1190        539      -0.16       0.00       0.00      0.000
2:39am            202          1          8         39         84       75.6       56.0      29.30       56.0        580       1190        538      -0.16       0.00       0.00      0.000
2:40am            163          4          8         39         84       75.6       56.0      29.30       55.8        581       1190        539      -0.15       0.00       0.00      0.000
2:41am            194          2          4         39         84       75.6       56.0      29.30       56.0        581       1190        539      -0.15       0.00       0.00      0.000
2:42am            194          1          4         39         84       75.6       56.0      29.30       56.0        582       1190        540      -0.15       0.00       0.00      0.000
2:43am            189          1          5         39         84       75.6       56.0      29.30       56.0        581       1190        539      -0.15       0.00       0.00      0.000
2:44am            195          1          6         39         84       75.6       56.0      29.30       56.0        581       1190        539      -0.14       0.00       0.00      0.000
2:45am            195          0          6         39         84       75.6       56.0      29.30       56.0        581       1190        539      -0.14       0.00       0.00      0.000
2:46am            224          7          7         39         84       75.6       56.1      29.30       54.5        581       1190        545      -0.04       0.00       0.00      0.000
2:47am            182          3          7         39         84       75.6       56.1      29.30       56.1        581       1190        545      -0.04       0.00       0.00      0.000
2:48am            193          4          7         39         84       75.4       56.1      29.30       55.9        581       1190        545      -0.04       0.00       0.00      0.000
2:49am            251          4          7         39         84       75.4       56.1      29.30       55.9        580       1190        544      -0.04       0.00       0.00      0.000
2:50am            191          5          8         39         84       75.4       56.1      29.30       55.4        580       1190        544      -0.04       0.00       0.00      0.000
2:51am            217          4          5         39         84       75.4       56.2      29.30       56.0        581       1191        552       0.06       0.00       0.00      0.000
2:52am            251          1          5         39         84       75.4       56.3      29.30       56.3        581       1191        559       0.16       0.00       0.00      0.000
2:53am            217          3          5         39         83       75.4       56.3      29.30       56.3        581       1272        559       0.16       0.00       0.00      0.000
2:54am            187          4          5         39         83       75.4       56.4      29.30       56.3        581       1273        565       0.26       0.00       0.00      0.000
2:55am            180          3          7         39         83       75.4       56.4      29.30       56.4        581       1273        565       0.25       0.00       0.00      0.000
2:56am            199          9          9         39         83       75.6       56.4      29.30       54.3        582       1273        566       0.25       0.00       0.00      0.000
2:57am            172          6          9         39         83       75.6       56.5      29.30       55.4        582       1273        573       0.34       0.00       0.00      0.000
2:58am            160          6          9         39         83       75.6       56.4      29.30       55.3        582       1273        566       0.24       0.00       0.00      0.000
2:59am            162          3          9         40         83       75.6       56.5      29.30       56.5        582       1273        573       0.33       0.00       0.00      0.000
3:00am            222          4          9         39         83       75.6       56.5      29.30       56.4        582       1273        573       0.33       0.00       0.00      0.000
3:01am            162          4          9         39         83       75.6       56.6      29.30       56.5        582       1274        579       0.42       0.00       0.00      0.000
3:02am            167          3          9         39         83       75.6       56.5      29.30       56.5        582       1273        573       0.31       0.00       0.00      0.000
3:03am            186          4          9         39         82       75.6       56.6      29.30       56.5        582       1356        579       0.41       0.00       0.00      0.000
3:04am            267          2          9         39         82       75.6       56.6      29.30       56.6        582       1356        579       0.40       0.00       0.00      0.000
3:05am            202          3          9         39         82       75.6       56.6      29.30       56.6        582       1356        579       0.40       0.00       0.00      0.000
3:06am            199          3          8         39         82       75.6       56.6      29.30       56.6        582       1356        579       0.39       0.00       0.00      0.000
3:07am            174          3          8         39         82       75.6       56.6      29.30       56.6        582       1356        579       0.39       0.00       0.00      0.000
3:08am            199          2          8         39         82       75.6       56.6      29.30       56.6        583       1356        581       0.38       0.00       0.00      0.000
3:09am            251          7         10         39         82       75.6       56.6      29.30       55.1        583       1356        581       0.37       0.00       0.00      0.000
3:10am            222          5         10         39         82       75.6       56.6      29.30       56.0        583       1356        581       0.37       0.00       0.00      0.000
3:11am            268          1          5         39         82       75.6       56.6      29.30       56.6        583       1356        581       0.36       0.00       0.00      0.000
3:12am            209          3          5         39         82       75.6       56.6      29.30       56.6        583       1356        581       0.36       0.00       0.00      0.000
3:13am            210          4          5         39         82       75.6       56.6      29.30       56.5        582       1356        579       0.35       0.00       0.00      0.000
3:14am            179          7          9         39         81       75.6       56.6      29.30       55.1        582       1439        579       0.34       0.00       0.00      0.000
3:15am            177          0          9         39         81       75.6       56.6      29.30       56.6        582       1439        579       0.34       0.00       0.00      0.000
3:16am            163          5          5         39         81       75.6       56.6      29.30       56.0        582       1439        579       0.33       0.00       0.00      0.000
3:17am            264          2          6         39         81       75.6       56.6      29.30       56.6        583       1439        581       0.33       0.00       0.00      0.000
3:18am            133          3          7         40         81       75.6       56.6      29.30       56.6        582       1439        579       0.32       0.00       0.00      0.000
3:19am            220          2          7         39         81       75.6       56.6      29.30       56.6        583       1439        581       0.32       0.00       0.00      0.000
3:20am            226          3          7         39         81       75.6       56.6      29.30       56.6        582       1439        579       0.31       0.00       0.00      0.000
3:21am            172          4          6         39         81       75.6       56.6      29.30       56.5        582       1439        579       0.31       0.00       0.00      0.000
3:22am            220          3          7         39         80       75.6       56.7      29.30       56.7        582       1523        586       0.40       0.00       0.00      0.000
3:23am            177          2          7         39         80       75.6       56.7      29.30       56.7        582       1523        586       0.39       0.00       0.00      0.000
3:24am            191          2          7         39         80       75.6       56.7      29.30       56.7        582       1523        586       0.39       0.00       0.00      0.000
3:25am            198          3          7         39         79       75.6       56.7      29.30       56.7        582       1608        586       0.38       0.00       0.00      0.000
3:26am            194          3          4         39         80       75.6       56.7      29.30       56.7        582       1523        586       0.37       0.00       0.00      0.000
3:27am            204          1          5         39         80       75.6       56.7      29.30       56.7        582       1523        586       0.37       0.00       0.00      0.000
3:28am            226          1          5         39         80       75.6       56.7      29.30       56.7        581       1523        585       0.36       0.00       0.00      0.000
3:29am            172          2          8         39         80       75.6       56.7      29.30       56.7        581       1523        585       0.35       0.00       0.00      0.000
3:30am            151          3          8         39         80       75.6       56.8      29.30       56.8        582       1524        593       0.45       0.00       0.00      0.000
3:31am            208          3          5         39         79       75.6       56.7      29.30       56.7        582       1608        586       0.34       0.00       0.00      0.000
3:32am            208          1          5         39         79       75.6       56.8      29.30       56.8        582       1608        593       0.43       0.00       0.00      0.000
3:33am            203          3          6         39         80       75.6       56.7      29.30       56.7        582       1523        586       0.33       0.00       0.00      0.000
3:34am            203          2          6         39         79       75.6       56.7      29.30       56.7        582       1608        586       0.32       0.00       0.00      0.000
3:35am            219          4          6         39         79       75.6       56.7      29.30       56.6        582       1608        586       0.32       0.00       0.00      0.000
3:36am            163          2          6         39         79       75.6       56.7      29.30       56.7        582       1608        586       0.31       0.00       0.00      0.000
3:37am            243          4          7         39         79       75.6       56.7      29.30       56.6        582       1608        586       0.31       0.00       0.00      0.000
3:38am            213          3          7         39         79       75.6       56.7      29.30       56.7        582       1608        586       0.30       0.00       0.00      0.000
3:39am            213          3          7         39         79       75.6       56.7      29.30       56.7        582       1608        586       0.29       0.00       0.00      0.000
3:40am            113          2          7         39         79       75.6       56.8      29.30       56.8        582       1608        593       0.39       0.00       0.00      0.000
3:41am            193          3          5         39         79       75.6       56.7      29.30       56.7        582       1608        586       0.28       0.00       0.00      0.000
3:42am            172          2          5         39         78       75.6       56.7      29.30       56.7        581       1693        585       0.28       0.00       0.00      0.000
3:43am            213          4          6         39         79       75.6       56.8      29.30       56.7        582       1608        593       0.37       0.00       0.00      0.000
3:44am            220          2          6         39         79       75.6       56.7      29.30       56.7        582       1608        586       0.27       0.00       0.00      0.000
3:45am            219          3          6         39         79       75.6       56.8      29.30       56.8        581       1608        591       0.36       0.00       0.00      0.000
3:46am            237          3          5         39         79       75.6       56.7      29.30       56.7        582       1608        586       0.26       0.00       0.00      0.000
3:47am            202          3          5         39         78       75.6       56.7      29.30       56.7        581       1693        585       0.25       0.00       0.00      0.000
3:48am            201          1          5         39         78       75.6       56.7      29.30       56.7        581       1693        585       0.25       0.00       0.00      0.000
3:49am            201          1          5         39         78       75.6       56.6      29.30       56.6        581       1693        578       0.15       0.00       0.00      0.000
3:50am            201          1          5         39         79       75.6       56.7      29.30       56.7        582       1608        586       0.24       0.00       0.00      0.000
3:51am            233          4          4         39         78       75.6       56.6      29.30       56.5        581       1693        578       0.14       0.00       0.00      0.000
3:52am            193          3          5         39         78       75.6       56.6      29.30       56.6        582       1693        579       0.14       0.00       0.00      0.000
3:53am            196          1          5         39         78       75.6       56.6      29.30       56.6        582       1693        579       0.14       0.00       0.00      0.000
3:54am            196          0          5         39         78       75.6       56.6      29.30       56.6        582       1693        579       0.13       0.00       0.00      0.000
3:55am            196          1          5         39         78       75.6       56.6      29.30       56.6        582       1693        579       0.13       0.00       0.00      0.000
3:56am            196          1          2         39         78       75.6       56.6      29.30       56.6        582       1693        579       0.13       0.00       0.00      0.000
3:57am            188          2          4         39         79       75.6       56.6      29.30       56.6        581       1607        578       0.13       0.00       0.00      0.000
3:58am            242          3          4         39         78       75.6       56.6      29.30       56.6        581       1693        578       0.13       0.00       0.00      0.000
3:59am            239          1          4         39         78       75.6       56.5      29.30       56.5        581       1692        572       0.02       0.00       0.00      0.000
4:00am            239          2          4         39         78       75.6       56.5      29.30       56.5        581       1692        572       0.02       0.00       0.00      0.000
4:01am            243          2          3         39         78       75.6       56.5      29.30       56.5        581       1692        572       0.02       0.00       0.00      0.000
4:02am            242          3          3         39         78       75.6       56.5      29.30       56.5        581       1692        572       0.02       0.00       0.00      0.000
4:03am            239          1          3         39         78       75.6       56.4      29.30       56.4        581       1691        565      -0.08       0.00       0.00      0.000
4:04am            182          1          3         39         78       75.6       56.4      29.30       56.4        581       1691        565      -0.08       0.00       0.00      0.000
4:05am            184          1          3         39         78       75.6       56.4      29.30       56.4        581       1691        565      -0.08       0.00       0.00      0.000
4:06am            184          1          2         39         78       75.6       56.4      29.30       56.4        581       1691        565      -0.08       0.00       0.00      0.000
4:07am            184          1          2         39         78       75.6       56.4      29.30       56.4        582       1691        566      -0.07       0.00       0.00      0.000
4:08am            184          1          2         39         78       75.6       56.4      29.30       56.4        581       1691        565      -0.07       0.00       0.00      0.000
4:09am            184          0          2         39         78       75.6       56.4      29.30       56.4        582       1691        566      -0.07       0.00       0.00      0.000
4:10am            184          1          2         39         78       75.6       56.3      29.30       56.3        582       1690        560      -0.17       0.00       0.00      0.000
4:11am            181          2          4         39         77       75.6       56.4      29.30       56.4        582       1778        566      -0.07       0.00       0.00      0.000
4:12am            208          5          6         39         77       75.6       56.3      29.30       55.6        582       1777        560      -0.16       0.00       0.00      0.000
4:13am            183          1          7         39         77       75.6       56.3      29.30       56.3        582       1777        560      -0.16       0.00       0.00      0.000
4:14am            183          2          7         39         77       75.6       56.4      29.30       56.4        583       1778        567      -0.06       0.00       0.00      0.000
4:15am            198          0          7         39         77       75.6       56.4      29.30       56.4        583       1778        567      -0.06       0.00       0.00      0.000
4:16am            198          2          2         39         77       75.6       56.3      29.29       56.3        584       1777        562      -0.16       0.00       0.00      0.000
4:17am            190          4          8         39         76       75.6       56.4      29.29       56.3        584       1865        570      -0.05       0.00       0.00      0.000
4:18am            161          1          8         39         77       75.6       56.4      29.29       56.4        585       1778        571      -0.05       0.00       0.00      0.000
4:19am            161          0          8         39         76       75.6       56.4      29.29       56.4        586       1865        572      -0.05       0.00       0.00      0.000
4:20am            161          0          8         39         77       75.6       56.4      29.29       56.4        585       1778        571      -0.05       0.00       0.00      0.000
4:21am            216          2          5         39         77       75.6       56.4      29.29       56.4        585       1778        571      -0.05       0.00       0.00      0.000
4:22am            243          1          5         39         76       75.6       56.4      29.29       56.4        584       1865        570      -0.05       0.00       0.00      0.000
4:23am            239          3          5         39         76       75.6       56.4      29.29       56.4        584       1865        569      -0.05       0.00       0.00      0.000
4:24am            239          2          5         39         76       75.6       56.4      29.29       56.4        584       1865        569      -0.05       0.00       0.00      0.000
4:25am            239          0          5         39         77       75.6       56.4      29.29       56.4        584       1778        570      -0.05       0.00       0.00      0.000
4:26am            239          2          2         39         77       75.6       56.3      29.29       56.3        584       1777        562      -0.15       0.00       0.00      0.000
4:27am            253          1          5         39         76       75.6       56.3      29.29       56.3        584       1864        562      -0.15       0.00       0.00      0.000
4:28am            177          2          5         39         77       75.6       56.4      29.30       56.4        583       1778        567      -0.04       0.00       0.00      0.000
4:29am            178          1          5         39         77       75.6       56.3      29.30       56.3        583       1777        561      -0.14       0.00       0.00      0.000
4:30am            178          1          5         39         76       75.6       56.2      29.30       56.2        583       1863        554      -0.24       0.00       0.00      0.000
4:31am            178          2          2         39         76       75.6       56.3      29.30       56.3        583       1864        561      -0.14       0.00       0.00      0.000
4:32am            162          1          5         39         76       75.6       56.3      29.30       56.3        583       1864        561      -0.13       0.00       0.00      0.000
4:33am            188          5          5         39         76       75.6       56.2      29.30       55.5        583       1863        554      -0.23       0.00       0.00      0.000
4:34am            214          2          7         39         75       75.6       56.2      29.30       56.2        583       1952        554      -0.23       0.00       0.00      0.000
4:35am            213          2          7         39         75       75.6       56.2      29.30       56.2        583       1952        554      -0.23       0.00       0.00      0.000
4:36am            213          0          2         39         76       75.6       56.3      29.30       56.3        583       1864        561      -0.12       0.00       0.00      0.000
4:37am            214          3          3         39         76       75.6       56.3      29.29       56.3        584       1864        562      -0.12       0.00       0.00      0.000
4:38am            214          0          3         39         76       75.6       56.3      29.29       56.3        584       1864        562      -0.12       0.00       0.00      0.000
4:39am            210          1          3         39         76       75.6       56.2      29.29       56.2        586       1863        559      -0.22       0.00       0.00      0.000
4:40am            210          0          3         39         76       75.6       56.3      29.29       56.3        586       1864        565      -0.12       0.00       0.00      0.000
4:41am            210          1          1         39         76       75.6       56.3      29.29       56.3        588       1864        568      -0.11       0.00       0.00      0.000
4:42am            210          2          3         39         76       75.6       56.2      29.29       56.2        589       1863        562      -0.21       0.00       0.00      0.000
4:43am            231          1          5         39         76       75.6       56.2      29.29       56.2        590       1863        563      -0.21       0.00       0.00      0.000
4:44am            165          0          5         39         75       75.6       56.2      29.29       56.2        590       1952        563      -0.20       0.00       0.00      0.000
4:45am            165          1          5         39         76       75.6       56.2      29.29       56.2        589       1863        562      -0.20       0.00       0.00      0.000
4:46am            165          1          1         39         76       75.6       56.2      29.29       56.2        589       1863        562      -0.20       0.00       0.00      0.000
4:47am            165          1          2         39         76       75.6       56.2      29.29       56.2        588       1863        561      -0.19       0.00       0.00      0.000
4:48am            193          4          5         39         76       75.6       56.2      29.29       56.0        589       1863        562      -0.19       0.00       0.00      0.000
4:49am            194          3          5         39         75       75.6       56.2      29.29       56.2        589       1952        562      -0.19       0.00       0.00      0.000
4:50am            199          0          5         39         75       75.6       56.1      29.29       56.1        591       1951        558      -0.28       0.00       0.00      0.000
4:51am            199          0          3         39         76       75.6       56.2      29.29       56.2        591       1863        564      -0.18       0.00       0.00      0.000
4:52am            199          2          3         40         76       75.6       56.2      29.28       56.2        593       1863        567      -0.17       0.00       0.00      0.000
4:53am            152          0          4         39         75       75.4       56.1      29.28       56.1        593       1951        560      -0.27       0.00       0.00      0.000
4:54am            204          1          4         39         75       75.4       56.1      29.28       56.1        594       1951        561      -0.26       0.00       0.00      0.000
4:55am            204          0          4         39         75       75.6       56.1      29.28       56.1        594       1951        561      -0.26       0.00       0.00      0.000
4:56am            232          3          4         39         75       75.6       56.1      29.28       56.1        594       1951        561      -0.26       0.00       0.00      0.000
4:57am            232          1          4         39         75       75.4       56.1      29.28       56.1        595       1951        562      -0.25       0.00       0.00      0.000
4:58am            220          2          4         39         75       75.4       56.1      29.28       56.1        594       1951        561      -0.25       0.00       0.00      0.000
4:59am            220          2          4         39         75       75.4       56.2      29.28       56.2        595       1952        569      -0.15       0.00       0.00      0.000
5:00am            220          0          4         39         75       75.4       56.2      29.28       56.2        595       1952        569      -0.15       0.00       0.00      0.000
5:01am            220          3          3         39         75       75.6       56.1      29.28       56.1        596       1951        564      -0.24       0.00       0.00      0.000
5:02am            161          2          5         39         75       75.6       56.1      29.28       56.1        596       1951        564      -0.24       0.00       0.00      0.000
5:03am            179          0          5         39         75       75.6       56.2      29.28       56.2        596       1952        570      -0.14       0.00       0.00      0.000
5:04am            179          0          5         39         75       75.6       56.2      29.28       56.2        596       1952        570      -0.13       0.00       0.00      0.000
5:05am            179          0          5         39         76       75.6       56.2      29.28       56.2        596       1863        570      -0.13       0.00       0.00      0.000
5:06am            179          2          3         39         76       75.6       56.1      29.28       56.1        596       1863        565      -0.23       0.00       0.00      0.000
5:07am            179          2          3         39         76       75.6       56.1      29.28       56.1        596       1863        565      -0.22       0.00       0.00      0.000
5:08am            181          1          3         39         76       75.6       56.1      29.28       56.1        598       1863        567      -0.22       0.00       0.00      0.000
5:09am            183          2          3         39         76       75.6       56.1      29.28       56.1        598       1863        567      -0.22       0.00       0.00      0.000
5:10am            162          2          3         39         76       75.6       56.0      29.28       56.0        599       1862        562      -0.31       0.00       0.00      0.000
5:11am            162          0          2         39         75       75.6       56.1      29.28       56.1        599       1951        568      -0.21       0.00       0.00      0.000
5:12am            162          1          2         39         76       75.6       56.1      29.28       56.1        599       1863        568      -0.20       0.00       0.00      0.000
5:13am            162          0          3         39         75       75.6       56.0      29.28       56.0        599       1950        562      -0.30       0.00       0.00      0.000
5:14am            160          1          3         39         75       75.4       56.0      29.28       56.0        599       1950        562      -0.29       0.00       0.00      0.000
5:15am            160          1          3         39         75       75.4       56.0      29.28       56.0        598       1950        560      -0.29       0.00       0.00      0.000
5:16am            160          1          1         39         75       75.4       56.1      29.28       56.1        598       1951        567      -0.19       0.00       0.00      0.000
5:17am            160          0          1         39         75       75.4       56.0      29.28       56.0        598       1950        560      -0.28       0.00       0.00      0.000
5:18am            160          0          1         39         75       75.4       56.0      29.28       56.0        598       1950        560      -0.28       0.00       0.00      0.000
5:19am            160          1          1         39         75       75.4       56.0      29.28       56.0        598       1950        560      -0.27       0.00       0.00      0.000
5:20am            160          1          1         39         75       75.4       56.0      29.28       56.0        598       1950        560      -0.27       0.00       0.00      0.000
5:21am            172          1          3         39         75       75.4       56.0      29.28       56.0        598       1950        560      -0.27       0.00       0.00      0.000
5:22am            172          1          3         39         75       75.4       56.0      29.28       56.0        597       1950        559      -0.26       0.00       0.00      0.000
5:23am            172          1          3         39         75       75.4       56.0      29.28       56.0        598       1950        560      -0.26       0.00       0.00      0.000
5:24am            172          2          3         39         76       75.4       56.0      29.28       56.0        597       1862        559      -0.25       0.00       0.00      0.000
5:25am            172          1          3         39         76       75.4       56.0      29.28       56.0        597       1862        559      -0.25       0.00       0.00      0.000
5:26am            172          2          2         39         76       75.4       56.0      29.28       56.0        597       1862        559      -0.24       0.00       0.00      0.000
5:27am            171          2          3         39         76       75.4       55.9      29.28       55.9        597       1861        553      -0.34       0.00       0.00      0.000
5:28am            171          0          3         39         76       75.4       55.9      29.28       55.9        597       1861        553      -0.33       0.00       0.00      0.000
5:29am            171          1          3         39         77       75.4       55.9      29.28       55.9        597       1774        553      -0.33       0.00       0.00      0.000
5:30am            171          1          3         39         77       75.4       55.9      29.28       55.9        596       1774        552      -0.32       0.00       0.00      0.000
5:31am            171          2          2         39         77       75.4       55.8      29.28       55.8        597       1773        546      -0.41       0.00       0.00      0.000
5:32am            172          1          2         39         77       75.4       55.7      29.28       55.7        597       1772        539      -0.51       0.00       0.00      0.000
5:33am            172          2          3         39         76       75.4       55.7      29.28       55.7        598       1859        541      -0.50       0.00       0.00      0.000
5:34am            172          1          3         39         76       75.4       55.7      29.28       55.7        598       1859        541      -0.49       0.00       0.00      0.000
5:35am            172          1          3         39         76       75.4       55.7      29.28       55.7        598       1859        541      -0.48       0.00       0.00      0.000
5:36am            172          2          2         39         76       75.4       55.7      29.28       55.7        599       1859        542      -0.47       0.00       0.00      0.000
5:37am            172          0          2         39         76       75.4       55.7      29.28       55.7        600       1859        543      -0.47       0.00       0.00      0.000
5:38am            172          0          2         39         76       75.4       55.7      29.28       55.7        600       1859        543      -0.46       0.00       0.00      0.000
5:39am            216          3          4         39         76       75.4       55.7      29.28       55.7        600       1859        543      -0.45       0.00       0.00      0.000
5:40am            217          0          4         39         76       75.4       55.7      29.28       55.7        600       1859        543      -0.44       0.00       0.00      0.000
5:41am            217          0          0         39         76       75.4       55.7      29.28       55.7        600       1859        543      -0.44       0.00       0.00      0.000
5:42am            198          2          5         39         77       75.4       55.7      29.28       55.7        599       1772        542      -0.43       0.00       0.00      0.000
5:43am            198          1          5         39         77       75.4       55.7      29.28       55.7        600       1772        543      -0.42       0.00       0.00      0.000
5:44am            198          0          5         39         77       75.4       55.7      29.28       55.7        600       1772        543      -0.42       0.00       0.00      0.000
5:45am            198          1          5         39         78       75.4       55.7      29.28       55.7        600       1686        543      -0.41       0.00       0.00      0.000

Data provided from:  Mark Hofmann's Bel Air, MD Weather Station